Powrót do katalogu

STARLINK-11206

AktywnyŁącznośćVLEO
NORAD 60312·PAYLOAD·🇺🇸 United States

Wystrzelony Jul 28, 2024 z Vandenberg Space Force Base

Loading…

Następne Przeloty (najbliższe 24 godziny)

TLE

ŚwieżeSource: CelesTrak SupGP

Epoka: Sep 14, 2026, 21:20 UTC

1 60312C 24133M   26257.88937500 -.00012724  00000+0 -10480-3 0  2577
2 60312  53.1567 293.8594 0001240  98.0421 332.1853 15.69717592    10

Śledź STARLINK-11206 w czasie rzeczywistym z AllMySat

Download on the App Store